Regional Weather Roundup
Issued by NWS State College, PA

Home | Current Version | Previous Version | Text Only | Print | Product List | Glossary Off
Versions: 1 2 3 4 5 6 7 8 9 10 11 12 13 14 15 16 17 18 19 20 21 22 23 24 25 26 27 28 29 30 31 32 33 34 35 36 37 38 39 40 41 42 43 44 45 46 47 48 49 50

000
ASUS41 KCTP 210210
RWRCTP

REGIONAL WEATHER ROUNDUP
NATIONAL WEATHER SERVICE STATE COLLEGE PA
1000 PM EDT SUN MAY 20 2018

Note: "fair" indicates few or no clouds below 12,000 feet with no
significant weather and/or obstructions to visibility.

* = STATION THAT DOES NOT REPORT PRECIPITATION /E.G. RAIN...SNOW...ETC/
    THUNDER OR FOG.

PAZ002>004-007>009-013>016-020>023-029>032-210300-
WESTERN PENNSYLVANIA

CITY           SKY/WX    TMP DP  RH WIND       PRES   REMARKS
ERIE           FAIR      54  50  86 SW6       30.17R
MEADVILLE      FAIR      54  53  97 NW3       30.18R
FRANKLIN*      FAIR      56  53  90 N3        30.18R
NEW CASTLE     CLOUDY    62  58  86 N5        30.17R
BEAVER COUNTY  NOT AVBL
BUTLER*        FAIR      63  56  78 CALM      30.16R
PITTSBURGH INT FAIR      66  57  72 NW3       30.14R
PITTSBURGH     FAIR      64  58  80 N3        30.13R
INDIANA*       CLEAR     61  61 100 CALM      30.17S
LATROBE        CLEAR     64  61  88 CALM      30.14R
WASHINGTON CO* FAIR      63  60  90 N3        30.17R
$$

PAZ004>006-010>012-017>019-024>028-033>037-041-042-045-046-049>053-210300-
CENTRAL PENNSYLVANIA

CITY           SKY/WX    TMP DP  RH WIND       PRES   REMARKS
BRADFORD       FAIR      53  50  89 CALM      30.16R
DUBOIS         FAIR      58  54  86 N5        30.14R
CLEARFIELD     FAIR      61  56  83 N7        30.13R
JOHNSTOWN      FAIR      62  56  80 CALM      30.16R
ALTOONA        FAIR      68  57  68 N3        30.13R
STATE COLLEGE  CLEAR     66  57  72 CALM      30.12R
WILLIAMSPORT   FAIR      61  54  77 S3        30.09R
SELINSGROVE    FAIR      62  56  80 N3        30.10R
FT INDIANTOWN  FAIR      68  59  72 N3        30.08R
CAPITAL CITY   FAIR      74  59  59 N5        30.07R
HARRISBURG     FAIR      68  60  75 NW5       30.06R
YORK           FAIR      67  62  84 W3        30.07R
$$

PAZ038>040-043-044-047-048-054-055-060>062-067>071-210300-
EASTERN PENNSYLVANIA

CITY           SKY/WX    TMP DP  RH WIND       PRES   REMARKS
SCRANTON       FAIR      60  56  86 N5        30.10S
MOUNT POCONO   FAIR      57  55  93 NW10      30.10R
ALLENTOWN      FAIR      66  56  70 CALM      30.07R
QUAKERTOWN*    CLEAR     68  61  77 N6        30.07R
READING        FAIR      68  63  84 N6        30.06R
LANCASTER      FAIR      70  63  78 N7        30.06R
COATESVILLE    FAIR      68  63  83 CALM      30.08R
POTTSTOWN      FAIR      68  62  81 N7        30.07R
BLUE BELL      FAIR      68  61  77 CALM      30.06R
DOYLESTOWN     FAIR      68  60  75 N5        30.05R
WILLOW GROVE   NOT AVBL
NORTH PHILA    FAIR      72  61  68 NE6       30.06R
PHILADELPHIA   FAIR      73  62  68 N12       30.05R
$$




USA.gov is the U.S. government's official web portal to all federal, state and local government web resources and services.